User: anonymous   Login
Location: Hains Lake
(37.8540°N, 99.8578°W)
Time: 19:02:40
(UTC+00:00)
Language:

Transit 2A - Orbit

View from above orbital plane
View from above orbital plane
View from above satellite
View from above satellite

Ground track
Ground track

The orbit data is extracted from the following two-line orbital elements,

1 00045U 60007A   21163.26601706 -.00000072  00000-0  86983-5 0  9992
2 00045  66.6929 152.6878 0249208  52.6212 309.7298 14.33721424117412
Epoch (UTC): 12 June 2021 06:23:03
Eccentricity: 0.0249208
inclination: 66.6929°
perigee height: 601 km
apogee height: 957 km
right ascension of ascending node: 152.6878°
argument of perigee: 52.6212°
revolutions per day: 14.33721424
mean anomaly at epoch: 309.7298°
orbit number at epoch: 11741

The dashed part of the orbit path shows where the satellite is in the earth's shadow,  

DLR